Adamsville, PA

6:41 PM EDT on August 24, 2016 (GMT -0400)
Port Meadville

Weather History for KGKJ - March, 2014

Change the Weather History Date:

Wednesday, March 5, 2014

  Actual Average Record
Temperature  
Mean Temperature 16 °F -  
Max Temperature 21 °F 44 °F 73 °F (2004)
Min Temperature 10 °F 24 °F 0 °F (1984)
Degree Days  
Heating Degree Days 50    
Moisture  
Dew Point 4 °F    
Average Humidity 58    
Maximum Humidity 73    
Minimum Humidity 39    
Precipitation  
Precipitation 0.00 in - - ()
Sea Level Pressure  
Sea Level Pressure 30.36 in    
Wind  
Wind Speed 7 mph (NNE)    
Max Wind Speed 14 mph    
Max Gust Speed 21 mph    
Visibility 10 miles    
Events      
Averages and records for this station are not official NWS values.
T = Trace of Precipitation, MM = Missing Value Source: NWS Daily Summary

Daily Weather History Graph

Daily Weather History Graph

Search for Another Location

Airport or City:

Trip Planner

Search our weather history database for the weather conditions in past years. The results will help you decide how hot, cold, wet, or windy it might be!

Date:

Astronomy

Mar. 05, 2014 Rise Set
Actual Time 6:49 AM EST 6:16 PM EST
Civil Twilight 6:21 AM EST 6:43 PM EST
Nautical Twilight 5:49 AM EST 7:15 PM EST
Astronomical Twilight 5:17 AM EST 7:48 PM EST
Moon 9:09 AM EST (3/5) 11:27 PM EST (3/5)
Length of Visible Light 12h 22m
Length of Day
11h 26m
Waxing Crescent, 23% of the Moon is Illuminated
Mar 5
Waxing Crescent
Mar 8
First Quarter
Mar 16
Full
Mar 23
Last Quarter
Mar 30
New

Hourly Weather History & Observations

Time (EST) Temp. Windchill Dew Point Humidity Pressure Visibility Wind Dir Wind Speed Gust Speed Precip Events Conditions
12:53 AM 18.0 °F 9.8 °F 1.0 °F 48% 30.21 in 10.0 mi North 5.8 mph - N/A   Overcast
1:53 AM 18.0 °F 9.8 °F 1.0 °F 48% 30.22 in 10.0 mi North 5.8 mph - N/A   Overcast
2:53 AM 17.1 °F 10.0 °F -2.9 °F 41% 30.22 in 10.0 mi North 4.6 mph - N/A   Overcast
3:53 AM 17.1 °F 8.7 °F -2.9 °F 41% 30.21 in 10.0 mi North 5.8 mph - N/A   Overcast
4:53 AM 16.0 °F 7.4 °F -5.1 °F 39% 30.22 in 10.0 mi North 5.8 mph - N/A   Overcast
5:53 AM 15.1 °F 6.4 °F -0.9 °F 49% 30.24 in 10.0 mi North 5.8 mph - N/A   Overcast
6:53 AM 15.1 °F 7.7 °F -0.0 °F 51% 30.27 in 10.0 mi North 4.6 mph - N/A   Overcast
7:53 AM 15.1 °F 7.7 °F 3.9 °F 61% 30.30 in 10.0 mi North 4.6 mph - N/A   Overcast
8:53 AM 16.0 °F 7.4 °F 7.0 °F 68% 30.32 in 10.0 mi North 5.8 mph - N/A   Overcast
9:53 AM 17.1 °F 6.6 °F 8.1 °F 68% 30.33 in 10.0 mi North 8.1 mph - N/A   Overcast
10:53 AM 19.0 °F 10.0 °F 9.0 °F 65% 30.35 in 10.0 mi North 6.9 mph - N/A   Overcast
11:53 AM 19.9 °F 9.3 °F 9.0 °F 62% 30.36 in 10.0 mi North 9.2 mph - N/A   Overcast
12:53 PM 21.9 °F 11.7 °F 9.0 °F 58% 30.36 in 10.0 mi NNE 9.2 mph - N/A   Mostly Cloudy
1:53 PM 21.9 °F 11.0 °F 8.1 °F 55% 30.38 in 10.0 mi North 10.4 mph - N/A   Overcast
2:38 PM 21.2 °F 10.9 °F 8.6 °F 58% 30.32 in 10.0 mi North 9.2 mph 20.7 mph N/A   Mostly Cloudy
2:53 PM 21.0 °F 9.3 °F 7.0 °F 55% 30.39 in 10.0 mi North 11.5 mph - N/A   Mostly Cloudy
3:53 PM 19.9 °F 6.7 °F 5.0 °F 52% 30.40 in 10.0 mi North 13.8 mph 20.7 mph N/A   Mostly Cloudy
4:53 PM 19.9 °F 9.3 °F 3.9 °F 50% 30.42 in 10.0 mi NNE 9.2 mph - N/A   Clear
5:53 PM 17.1 °F 5.0 °F 5.0 °F 59% 30.45 in 10.0 mi NNE 10.4 mph 19.6 mph N/A   Partly Cloudy
6:53 PM 15.1 °F 5.2 °F 5.0 °F 64% 30.47 in 10.0 mi NNE 6.9 mph - N/A   Clear
7:53 PM 14.0 °F 2.0 °F 5.0 °F 67% 30.47 in 10.0 mi NE 9.2 mph - N/A   Clear
8:53 PM 12.9 °F 1.6 °F 3.9 °F 67% 30.49 in 10.0 mi NE 8.1 mph - N/A   Clear
9:53 PM 12.0 °F 1.5 °F 3.9 °F 70% 30.50 in 10.0 mi NE 6.9 mph - N/A   Clear
10:53 PM 10.9 °F -2.6 °F 3.9 °F 73% 30.49 in 10.0 mi NE 10.4 mph - N/A   Clear
11:53 PM 10.9 °F -0.8 °F 3.9 °F 73% 30.49 in 10.0 mi ENE 8.1 mph - N/A   Clear